Time,TemperatureF,DewpointF,PressureIn,WindDirection,WindDirectionDegrees,WindSpeedMPH,WindSpeedGustMPH,Humidity,HourlyPrecipIn,Conditions,Clouds,dailyrainin,SoftwareType,DateUTC
2013-03-31 00:07:00,42.9,37.0,29.94,SSW,205,0.0,0.0,80,0.00,,,0.00,weatherlink.com 1.10,2013-03-31 04:07:00,
2013-03-31 00:23:00,42.7,38.0,29.94,SSW,205,0.0,0.0,82,0.00,,,0.00,weatherlink.com 1.10,2013-03-31 04:23:00,
2013-03-31 00:38:00,42.3,37.0,29.93,SSW,205,0.0,0.0,82,0.00,,,0.00,weatherlink.com 1.10,2013-03-31 04:38:00,
2013-03-31 00:53:00,41.4,37.0,29.92,SSW,205,0.0,0.0,83,0.00,,,0.00,weatherlink.com 1.10,2013-03-31 04:53:00,
2013-03-31 01:09:00,40.6,37.0,29.92,SSW,205,0.0,0.0,85,0.00,,,0.00,weatherlink.com 1.10,2013-03-31 05:09:00,
2013-03-31 01:24:00,40.2,36.0,29.91,SSW,205,0.0,0.0,86,0.00,,,0.00,weatherlink.com 1.10,2013-03-31 05:24:00,
2013-03-31 01:39:00,39.8,36.0,29.90,SSW,205,0.0,0.0,87,0.00,,,0.00,weatherlink.com 1.10,2013-03-31 05:39:00,
2013-03-31 01:56:00,39.7,36.0,29.89,SSW,205,0.0,0.0,87,0.00,,,0.00,weatherlink.com 1.10,2013-03-31 05:56:00,
2013-03-31 02:10:00,39.7,37.0,29.89,SSW,205,0.0,0.0,88,0.00,,,0.00,weatherlink.com 1.10,2013-03-31 06:10:00,
2013-03-31 02:27:00,40.0,37.0,29.88,SSW,205,0.0,0.0,88,0.00,,,0.00,weatherlink.com 1.10,2013-03-31 06:27:00,
2013-03-31 02:42:00,40.3,38.0,29.88,SSW,205,0.0,0.0,90,0.00,,,0.00,weatherlink.com 1.10,2013-03-31 06:42:00,
2013-03-31 02:56:00,40.6,38.0,29.87,SSW,205,0.0,0.0,90,0.00,,,0.00,weatherlink.com 1.10,2013-03-31 06:56:00,
2013-03-31 03:11:00,40.6,38.0,29.86,SSW,205,0.0,0.0,90,0.00,,,0.00,weatherlink.com 1.10,2013-03-31 07:11:00,
2013-03-31 03:26:00,40.8,38.0,29.86,SSW,205,0.0,0.0,90,0.00,,,0.00,weatherlink.com 1.10,2013-03-31 07:26:00,
2013-03-31 03:42:00,41.1,38.0,29.85,SSW,205,2.0,4.0,90,0.00,,,0.00,weatherlink.com 1.10,2013-03-31 07:42:00,
2013-03-31 03:57:00,41.8,39.0,29.84,SSW,202,2.0,3.0,89,0.00,,,0.00,weatherlink.com 1.10,2013-03-31 07:57:00,
2013-03-31 04:12:00,42.5,38.0,29.84,SSW,202,0.0,2.0,85,0.00,,,0.00,weatherlink.com 1.10,2013-03-31 08:12:00,
2013-03-31 04:27:00,43.8,39.0,29.83,SSW,198,1.0,4.0,83,0.00,,,0.00,weatherlink.com 1.10,2013-03-31 08:27:00,
2013-03-31 04:43:00,44.5,39.0,29.83,SSW,210,1.0,5.0,81,0.00,,,0.00,weatherlink.com 1.10,2013-03-31 08:43:00,
2013-03-31 04:58:00,45.2,39.0,29.82,SW,216,3.0,4.0,79,0.00,,,0.00,weatherlink.com 1.10,2013-03-31 08:58:00,
2013-03-31 05:13:00,45.8,39.0,29.82,SW,215,2.0,5.0,78,0.00,,,0.00,weatherlink.com 1.10,2013-03-31 09:13:00,
2013-03-31 05:28:00,45.6,39.0,29.81,SW,215,3.0,3.0,79,0.00,,,0.00,weatherlink.com 1.10,2013-03-31 09:28:00,
2013-03-31 05:44:00,46.0,40.0,29.81,SW,221,3.0,4.0,78,0.00,,,0.00,weatherlink.com 1.10,2013-03-31 09:44:00,
2013-03-31 05:59:00,46.0,40.0,29.80,WSW,239,5.0,5.0,79,0.00,,,0.00,weatherlink.com 1.10,2013-03-31 09:59:00,
2013-03-31 06:14:00,46.0,40.0,29.81,WSW,258,4.0,6.0,80,0.00,,,0.00,weatherlink.com 1.10,2013-03-31 10:14:00,
2013-03-31 06:29:00,45.9,40.0,29.81,West,264,3.0,5.0,81,0.00,,,0.00,weatherlink.com 1.10,2013-03-31 10:29:00,
2013-03-31 06:47:00,45.6,40.0,29.81,WSW,254,4.0,6.0,82,0.00,,,0.00,weatherlink.com 1.10,2013-03-31 10:47:00,
2013-03-31 07:01:00,45.8,41.0,29.81,WSW,251,5.0,7.0,83,0.00,,,0.00,weatherlink.com 1.10,2013-03-31 11:01:00,
2013-03-31 07:16:00,45.8,41.0,29.81,WSW,256,3.0,7.0,84,0.00,,,0.00,weatherlink.com 1.10,2013-03-31 11:16:00,
2013-03-31 07:31:00,45.8,41.0,29.81,WSW,250,2.0,7.0,84,0.00,,,0.00,weatherlink.com 1.10,2013-03-31 11:31:00,
2013-03-31 07:47:00,45.7,42.0,29.80,WSW,238,2.0,6.0,85,0.00,,,0.00,weatherlink.com 1.10,2013-03-31 11:47:00,
2013-03-31 08:03:00,45.5,42.0,29.80,West,263,1.0,7.0,86,0.00,,,0.00,weatherlink.com 1.10,2013-03-31 12:03:00,
2013-03-31 08:16:00,45.5,42.0,29.80,SW,231,2.0,6.0,87,0.00,,,0.00,weatherlink.com 1.10,2013-03-31 12:16:00,
2013-03-31 08:32:00,45.6,42.0,29.81,WSW,248,4.0,9.0,88,0.00,,,0.00,weatherlink.com 1.10,2013-03-31 12:32:00,
2013-03-31 08:47:00,45.8,43.0,29.80,WSW,255,3.0,7.0,89,0.00,,,0.00,weatherlink.com 1.10,2013-03-31 12:47:00,
2013-03-31 09:02:00,45.8,43.0,29.79,WSW,248,5.0,10.0,89,0.00,,,0.00,weatherlink.com 1.10,2013-03-31 13:02:00,
2013-03-31 09:17:00,45.6,43.0,29.80,WSW,248,6.0,10.0,91,0.00,,,0.00,weatherlink.com 1.10,2013-03-31 13:17:00,
2013-03-31 09:33:00,45.4,43.0,29.79,WSW,257,5.0,9.0,92,0.00,,,0.00,weatherlink.com 1.10,2013-03-31 13:33:00,
2013-03-31 09:48:00,45.3,43.0,29.79,West,267,4.0,10.0,93,0.00,,,0.00,weatherlink.com 1.10,2013-03-31 13:48:00,
2013-03-31 10:04:00,45.3,44.0,29.79,WSW,239,7.0,10.0,94,0.00,,,0.00,weatherlink.com 1.10,2013-03-31 14:04:00,
2013-03-31 10:18:00,45.3,44.0,29.79,WNW,284,3.0,11.0,94,0.00,,,0.00,weatherlink.com 1.10,2013-03-31 14:18:00,
2013-03-31 10:34:00,45.4,44.0,29.79,WSW,254,5.0,10.0,94,0.00,,,0.00,weatherlink.com 1.10,2013-03-31 14:34:00,
2013-03-31 10:50:00,45.5,44.0,29.80,West,266,4.0,11.0,95,0.00,,,0.00,weatherlink.com 1.10,2013-03-31 14:50:00,
2013-03-31 11:04:00,45.5,44.0,29.80,West,260,8.0,12.0,95,0.00,,,0.00,weatherlink.com 1.10,2013-03-31 15:04:00,
2013-03-31 11:19:00,45.5,44.0,29.80,West,267,5.0,15.0,95,0.00,,,0.00,weatherlink.com 1.10,2013-03-31 15:19:00,
2013-03-31 11:37:00,46.0,45.0,29.80,WNW,284,8.0,12.0,95,0.00,,,0.00,weatherlink.com 1.10,2013-03-31 15:37:00,
2013-03-31 11:52:00,47.3,46.0,29.80,WNW,284,8.0,16.0,94,0.00,,,0.00,weatherlink.com 1.10,2013-03-31 15:52:00,
2013-03-31 12:06:00,48.5,46.0,29.80,West,265,9.0,16.0,89,0.00,,,0.00,weatherlink.com 1.10,2013-03-31 16:06:00,
2013-03-31 12:21:00,48.9,44.0,29.79,West,266,10.0,14.0,84,0.00,,,0.00,weatherlink.com 1.10,2013-03-31 16:21:00,
2013-03-31 12:36:00,50.5,45.0,29.79,WSW,247,12.0,16.0,80,0.00,,,0.00,weatherlink.com 1.10,2013-03-31 16:36:00,
2013-03-31 12:52:00,51.1,44.0,29.79,West,275,11.0,14.0,76,0.00,,,0.00,weatherlink.com 1.10,2013-03-31 16:52:00,
2013-03-31 13:06:00,51.9,44.0,29.79,West,279,10.0,15.0,74,0.00,,,0.00,weatherlink.com 1.10,2013-03-31 17:06:00,
2013-03-31 13:22:00,53.1,44.0,29.78,West,272,7.0,15.0,72,0.00,,,0.00,weatherlink.com 1.10,2013-03-31 17:22:00,
2013-03-31 13:37:00,53.3,43.0,29.77,West,273,9.0,14.0,68,0.00,,,0.00,weatherlink.com 1.10,2013-03-31 17:37:00,
2013-03-31 13:52:00,54.5,45.0,29.77,SW,216,9.0,15.0,70,0.00,,,0.00,weatherlink.com 1.10,2013-03-31 17:52:00,
2013-03-31 14:07:00,54.9,44.0,29.77,WNW,290,10.0,16.0,68,0.00,,,0.00,weatherlink.com 1.10,2013-03-31 18:07:00,
2013-03-31 14:23:00,55.8,44.0,29.76,SW,227,5.0,15.0,64,0.00,,,0.00,weatherlink.com 1.10,2013-03-31 18:23:00,
2013-03-31 14:38:00,56.0,43.0,29.76,West,279,11.0,20.0,61,0.00,,,0.00,weatherlink.com 1.10,2013-03-31 18:38:00,
2013-03-31 14:53:00,56.9,43.0,29.75,WNW,293,7.0,17.0,61,0.00,,,0.00,weatherlink.com 1.10,2013-03-31 18:53:00,
2013-03-31 15:08:00,57.1,43.0,29.75,WSW,247,6.0,15.0,60,0.00,,,0.00,weatherlink.com 1.10,2013-03-31 19:08:00,
2013-03-31 15:24:00,56.8,42.0,29.74,WSW,248,9.0,15.0,59,0.00,,,0.00,weatherlink.com 1.10,2013-03-31 19:24:00,
2013-03-31 15:55:00,57.7,42.0,29.74,SW,225,12.0,18.0,57,0.00,,,0.00,weatherlink.com 1.10,2013-03-31 19:55:00,
2013-03-31 16:09:00,58.5,42.0,29.73,WSW,254,8.0,22.0,55,0.00,,,0.00,weatherlink.com 1.10,2013-03-31 20:09:00,
2013-03-31 16:26:00,58.9,43.0,29.73,West,264,20.0,21.0,55,0.00,,,0.00,weatherlink.com 1.10,2013-03-31 20:26:00,
2013-03-31 16:41:00,58.9,42.0,29.73,West,266,9.0,22.0,53,0.00,,,0.00,weatherlink.com 1.10,2013-03-31 20:41:00,
2013-03-31 17:41:00,58.1,40.0,29.72,WSW,255,17.0,18.0,52,0.00,,,0.00,weatherlink.com 1.10,2013-03-31 21:41:00,
2013-03-31 17:56:00,58.3,41.0,29.73,WSW,258,8.0,21.0,54,0.00,,,0.00,weatherlink.com 1.10,2013-03-31 21:56:00,
2013-03-31 18:11:00,58.6,42.0,29.73,West,264,7.0,20.0,55,0.00,,,0.00,weatherlink.com 1.10,2013-03-31 22:11:00,
2013-03-31 18:28:00,57.7,42.0,29.73,WSW,244,12.0,18.0,57,0.00,,,0.00,weatherlink.com 1.10,2013-03-31 22:28:00,
2013-03-31 18:43:00,56.4,42.0,29.72,West,269,3.0,14.0,60,0.00,,,0.00,weatherlink.com 1.10,2013-03-31 22:43:00,
2013-03-31 18:57:00,55.9,43.0,29.75,WSW,254,11.0,34.0,62,0.00,,,0.00,weatherlink.com 1.10,2013-03-31 22:57:00,
2013-03-31 19:13:00,53.9,42.0,29.73,WNW,302,11.0,19.0,65,0.00,,,0.00,weatherlink.com 1.10,2013-03-31 23:13:00,
2013-03-31 19:28:00,54.9,41.0,29.74,WSW,257,7.0,16.0,61,0.00,,,0.00,weatherlink.com 1.10,2013-03-31 23:28:00,
2013-03-31 19:43:00,53.6,42.0,29.75,SW,234,9.0,20.0,65,0.00,,,0.00,weatherlink.com 1.10,2013-03-31 23:43:00,
2013-03-31 19:58:00,52.5,43.0,29.73,SW,234,7.0,14.0,69,0.00,,,0.00,weatherlink.com 1.10,2013-03-31 23:58:00,
2013-03-31 20:15:00,51.7,43.0,29.74,WSW,238,4.0,14.0,72,0.00,,,0.00,weatherlink.com 1.10,2013-04-01 00:15:00,
2013-03-31 20:30:00,50.9,43.0,29.74,WSW,242,7.0,13.0,75,0.00,,,0.00,weatherlink.com 1.10,2013-04-01 00:30:00,
2013-03-31 20:46:00,50.4,43.0,29.74,West,264,6.0,14.0,77,0.00,,,0.00,weatherlink.com 1.10,2013-04-01 00:46:00,
2013-03-31 21:00:00,50.3,44.0,29.75,WSW,251,3.0,12.0,78,0.00,,,0.00,weatherlink.com 1.10,2013-04-01 01:00:00,
2013-03-31 21:16:00,50.6,44.0,29.75,WSW,244,4.0,13.0,77,0.00,,,0.00,weatherlink.com 1.10,2013-04-01 01:16:00,
2013-03-31 21:31:00,50.5,44.0,29.76,West,269,9.0,14.0,77,0.00,,,0.00,weatherlink.com 1.10,2013-04-01 01:31:00,
2013-03-31 21:46:00,50.2,43.0,29.76,WSW,257,6.0,12.0,77,0.00,,,0.00,weatherlink.com 1.10,2013-04-01 01:46:00,
2013-03-31 22:02:00,50.2,43.0,29.76,WNW,296,5.0,13.0,75,0.00,,,0.00,weatherlink.com 1.10,2013-04-01 02:02:00,
2013-03-31 22:16:00,50.0,40.0,29.77,West,277,4.0,14.0,68,0.00,,,0.00,weatherlink.com 1.10,2013-04-01 02:16:00,
2013-03-31 22:32:00,50.4,35.0,29.78,West,277,7.0,21.0,56,0.00,,,0.00,weatherlink.com 1.10,2013-04-01 02:32:00,
2013-03-31 22:47:00,49.2,36.0,29.79,WNW,292,12.0,16.0,60,0.00,,,0.00,weatherlink.com 1.10,2013-04-01 02:47:00,
2013-03-31 23:02:00,48.2,36.0,29.80,NW,322,12.0,16.0,62,0.00,,,0.00,weatherlink.com 1.10,2013-04-01 03:02:00,
2013-03-31 23:19:00,45.8,36.0,29.81,NNW,338,7.0,17.0,68,0.00,,,0.00,weatherlink.com 1.10,2013-04-01 03:19:00,
2013-03-31 23:33:00,44.4,36.0,29.81,NW,317,4.0,15.0,71,0.00,,,0.00,weatherlink.com 1.10,2013-04-01 03:33:00,
2013-03-31 23:48:00,43.5,35.0,29.81,NNW,330,5.0,8.0,73,0.00,,,0.00,weatherlink.com 1.10,2013-04-01 03:48:00,